TimeMDT,TemperatureF,Dew PointF,Humidity,Sea Level PressureIn,VisibilityMPH,Wind Direction,Wind SpeedMPH,Gust SpeedMPH,PrecipitationIn,Events,Conditions,WindDirDegrees,DateUTC
12:06 AM,26.6,24.8,93,30.07,1.8,NNE,5.8,-,0.00,Snow,Light Snow,30,2013-10-18 06:06:00
12:14 AM,26.6,24.8,93,30.08,2.5,NNE,3.5,-,0.00,,Overcast,30,2013-10-18 06:14:00
12:22 AM,26.6,24.8,93,30.08,3.0,NNE,3.5,-,0.00,,Overcast,20,2013-10-18 06:22:00
12:41 AM,24.8,23.0,93,30.07,5.0,North,3.5,-,0.00,,Overcast,360,2013-10-18 06:41:00
12:53 AM,25.0,23.0,92,30.07,2.5,North,3.5,-,0.00,Snow,Light Snow,360,2013-10-18 06:53:00
1:10 AM,23.0,21.2,93,30.08,8.0,NW,3.5,-,0.00,,Overcast,320,2013-10-18 07:10:00
1:20 AM,24.8,23.0,93,30.08,10.0,NW,6.9,-,0.00,,Overcast,320,2013-10-18 07:20:00
1:53 AM,25.0,24.1,96,30.09,10.0,WNW,6.9,-,0.00,,Overcast,300,2013-10-18 07:53:00
2:06 AM,24.8,23.0,93,30.08,10.0,WNW,5.8,-,N/A,,Overcast,290,2013-10-18 08:06:00
2:53 AM,23.0,23.0,100,30.10,10.0,Calm,Calm,-,N/A,,Overcast,0,2013-10-18 08:53:00
3:53 AM,23.0,21.0,92,30.13,10.0,Calm,Calm,-,N/A,,Overcast,0,2013-10-18 09:53:00
4:53 AM,25.0,19.9,81,30.13,10.0,NW,11.5,-,N/A,,Overcast,310,2013-10-18 10:53:00
5:53 AM,24.1,19.0,81,30.16,10.0,WNW,11.5,-,N/A,,Mostly Cloudy,300,2013-10-18 11:53:00
6:53 AM,21.0,16.0,81,30.19,10.0,WNW,15.0,-,N/A,,Partly Cloudy,300,2013-10-18 12:53:00
7:53 AM,23.0,18.0,81,30.20,10.0,NW,12.7,-,N/A,,Overcast,310,2013-10-18 13:53:00
8:53 AM,23.0,17.1,78,30.23,10.0,WNW,8.1,-,N/A,,Mostly Cloudy,290,2013-10-18 14:53:00
9:26 AM,24.8,17.6,74,30.18,10.0,NW,9.2,-,N/A,,Mostly Cloudy,320,2013-10-18 15:26:00
9:41 AM,24.8,19.4,80,30.18,10.0,NNW,8.1,-,N/A,,Scattered Clouds,330,2013-10-18 15:41:00
9:53 AM,25.0,19.0,78,30.25,10.0,NNW,8.1,-,N/A,,Scattered Clouds,330,2013-10-18 15:53:00
10:53 AM,27.0,19.0,72,30.24,10.0,NW,16.1,25.3,N/A,,Mostly Cloudy,310,2013-10-18 16:53:00
11:53 AM,28.0,19.0,69,30.24,10.0,NW,19.6,-,N/A,,Partly Cloudy,320,2013-10-18 17:53:00
12:53 PM,28.9,21.0,72,30.22,10.0,NNW,20.7,25.3,N/A,,Clear,330,2013-10-18 18:53:00
1:53 PM,30.0,21.9,72,30.19,10.0,NNW,16.1,24.2,N/A,,Clear,340,2013-10-18 19:53:00
2:53 PM,30.9,21.0,67,30.18,10.0,NW,20.7,-,N/A,,Clear,320,2013-10-18 20:53:00
3:53 PM,32.0,21.0,64,30.16,10.0,NW,12.7,-,N/A,,Clear,320,2013-10-18 21:53:00
4:53 PM,33.1,21.9,64,30.13,10.0,NNW,10.4,-,N/A,,Clear,330,2013-10-18 22:53:00
5:53 PM,30.0,21.0,69,30.16,10.0,NNW,9.2,-,N/A,,Clear,330,2013-10-18 23:53:00
6:53 PM,28.0,17.1,63,30.19,10.0,Calm,Calm,-,N/A,,Clear,0,2013-10-19 00:53:00
7:53 PM,24.1,17.1,75,30.21,10.0,WSW,9.2,-,N/A,,Clear,250,2013-10-19 01:53:00
8:53 PM,28.0,17.1,63,30.19,10.0,West,8.1,-,N/A,,Clear,270,2013-10-19 02:53:00
9:53 PM,25.0,18.0,75,30.19,10.0,WSW,8.1,-,N/A,,Clear,250,2013-10-19 03:53:00
10:53 PM,27.0,19.0,72,30.19,10.0,West,11.5,-,N/A,,Clear,260,2013-10-19 04:53:00
11:53 PM,30.0,21.0,69,30.15,10.0,West,12.7,-,N/A,,Overcast,260,2013-10-19 05:53:00